KINEIS-2D

Last updated on Mon Dec 15 2025 00:02:49 GMT+0000 (Coordinated Universal Time)

1 62930U 25028C 25348.10272857 .00002668 00000+0 40449-3 0 9996 2 62930 97.9560 38.9513 0004533 85.6045 274.5682 14.74950513 45428
UTC large
Height (km)
Speed (km/s)
/
Latitude / Longitude
Inclination (degrees)
Orbital Period (minutes)
Azimuth
Elevation
Range (km)
Doppler Factor

Next 0 passes for location: London (51.5072 / 0.1276)

Sorry there are no passes over London.